Location: Vienna
(48.2082°N, 16.3738°E)
Time: 18:56:14
(UTC+02:00)

ISS - Visible Passes

Search period start: 23 May 2017 00:00
Search period end: 02 June 2017 00:00
Orbit: 402 x 409 km, 51.6° (Epoch: 24 May)

Date Brightness Start Highest point End Pass type
(mag) Time Alt. Az. Time Alt. Az. Time Alt. Az.
23 May -2.7 01:15:15 14° WNW 01:17:55 45° N 01:21:06 10° ENE visible
23 May -3.2 02:51:29 10° WNW 02:54:44 57° NNE 02:57:58 10° E visible
23 May -3.6 22:46:05 10° SW 22:49:16 47° SSE 22:52:27 10° ENE visible
24 May -3.0 00:22:32 10° W 00:25:46 53° NNW 00:29:00 10° ENE visible
24 May -2.8 01:59:23 10° WNW 02:02:36 47° N 02:05:48 10° E visible
24 May -3.9 03:35:56 10° WNW 03:39:12 64° SSW 03:42:27 10° SE visible
24 May -3.0 21:54:25 10° SSW 21:57:20 29° SE 22:00:14 10° E visible
24 May -3.5 23:30:22 10° WSW 23:33:39 68° NNW 23:36:56 10° ENE visible
25 May -2.6 01:07:16 10° WNW 01:10:26 43° N 01:13:36 10° ENE visible
25 May -3.9 02:43:52 10° WNW 02:47:10 86° NNE 02:50:27 10° ESE visible
25 May -2.5 04:20:50 10° W 04:23:20 20° SW 04:25:51 10° S visible
25 May -3.9 22:38:15 10° WSW 22:41:34 86° SSE 22:44:52 10° ENE visible
26 May -2.6 00:15:04 10° WNW 00:18:16 44° N 00:21:26 10° ENE visible
26 May -3.4 01:51:47 10° WNW 01:55:03 63° NNE 01:58:19 10° E visible
26 May -3.2 03:28:26 10° W 03:31:26 33° SW 03:34:25 10° SSE visible
26 May -3.8 21:46:17 10° SW 21:49:31 56° SSE 21:52:45 10° ENE visible
26 May -2.9 23:22:51 10° W 23:26:04 49° N 23:29:18 10° ENE visible
27 May -2.9 00:59:40 10° WNW 01:02:55 50° N 01:06:08 10° E visible
27 May -3.8 02:36:14 10° WNW 02:39:27 53° SSW 02:42:39 10° SE visible
27 May -3.3 22:30:38 10° W 22:33:54 61° NNW 22:37:11 10° ENE visible
28 May -2.7 00:07:32 10° WNW 00:10:42 44° N 00:13:53 10° E visible
28 May -4.0 01:44:06 10° WNW 01:47:17 80° WSW 01:47:17 80° WSW visible
28 May -3.7 21:38:27 10° WSW 21:41:45 83° NNW 21:45:04 10° ENE visible
28 May -2.6 23:15:19 10° WNW 23:18:30 43° N 23:21:40 10° ENE visible
29 May -3.6 00:51:58 10° WNW 00:55:16 70° NNE 00:55:49 55° ENE visible
29 May -2.7 22:23:03 10° W 22:26:16 47° N 22:29:28 10° ENE visible
29 May -3.1 23:59:50 10° WNW 00:03:06 54° NNE 00:04:53 23° E visible
30 May -1.8 01:36:25 10° WNW 01:37:30 19° W 01:37:30 19° W visible
30 May -3.0 21:30:47 10° W 21:34:03 56° NNW 21:37:19 10° ENE visible
30 May -2.8 23:07:40 10° WNW 23:10:52 46° N 23:14:04 10° E visible
31 May -3.3 00:44:13 10° WNW 00:46:45 48° W 00:46:45 48° W visible
31 May -2.6 22:15:26 10° WNW 22:18:37 43° N 22:21:48 10° ENE visible
31 May -3.8 23:52:03 10° WNW 23:55:22 79° NNE 23:56:06 50° E visible
01 Jun -2.6 21:23:09 10° W 21:26:21 45° N 21:29:33 10° ENE visible
01 Jun -3.3 22:59:53 10° WNW 23:03:09 59° NNE 23:05:30 17° E visible
